EST,Max TemperatureF,Mean TemperatureF,Min TemperatureF,Max Dew PointF,MeanDew PointF,Min DewpointF,Max Humidity, Mean Humidity, Min Humidity, Max Sea Level PressureIn, Mean Sea Level PressureIn, Min Sea Level PressureIn, Max VisibilityMiles, Mean VisibilityMiles, Min VisibilityMiles, Max Wind SpeedMPH, Mean Wind SpeedMPH, Max Gust SpeedMPH,PrecipitationIn, CloudCover, Events, WindDirDegrees
2013-11-1,66,63,60,63,60,53,94,89,78,29.84,29.67,29.56,10,7,2,25,16,40,0.02,7,Rain,201
2013-11-2,62,58,53,54,49,45,84,73,60,29.72,29.66,29.61,10,10,10,6,2,,0.00,2,,123
2013-11-3,54,46,36,45,35,16,82,70,41,30.36,30.05,29.74,10,10,10,15,10,23,0.00,5,,356
2013-11-4,43,36,28,24,21,16,78,56,42,30.69,30.59,30.42,10,10,10,15,11,21,0.00,0,,27
2013-11-5,46,38,30,35,30,25,85,70,47,30.70,30.63,30.53,10,10,10,8,4,,0.00,0,,67
2013-11-6,57,48,39,53,46,35,93,81,64,30.51,30.31,30.09,10,10,10,15,5,20,0.00,4,,190
2013-11-7,61,52,43,59,55,32,100,92,65,30.08,29.84,29.68,10,7,1,18,9,29,0.42,7,Rain,232
2013-11-8,48,42,37,35,29,22,79,60,43,30.13,29.96,29.85,10,10,10,18,11,28,0.00,2,,292
2013-11-9,48,40,35,35,26,20,70,55,38,30.23,30.16,30.05,10,10,10,14,8,20,0.00,1,,291
2013-11-10,54,48,43,41,37,33,71,63,56,30.01,29.86,29.74,10,10,10,24,8,31,0.00,6,Rain,232
2013-11-11,52,46,41,39,30,25,61,53,39,30.12,30.02,29.93,10,10,10,20,13,33,0.00,3,,263
2013-11-12,52,41,28,37,27,15,92,71,52,30.18,30.05,29.90,10,7,1,23,13,33,0.00,6,Rain-Snow,320
2013-11-13,37,32,26,16,14,10,66,49,34,30.29,30.24,30.18,10,10,10,20,13,28,0.00,0,,313
2013-11-14,48,40,33,30,23,16,67,47,30,30.19,30.14,30.08,10,10,10,10,6,20,0.00,0,,236
2013-11-15,55,47,39,44,36,27,83,62,34,30.24,30.19,30.16,10,10,10,13,4,22,0.00,0,,217
2013-11-16,57,48,39,45,38,26,100,73,41,30.32,30.29,30.21,10,8,0,10,4,,0.00,2,Fog,237
2013-11-17,59,48,36,59,49,36,100,94,74,30.31,30.17,29.86,10,4,0,16,5,22,0.05,6,Fog-Rain,126
2013-11-18,62,56,50,60,51,32,100,81,47,29.83,29.64,29.58,10,7,0,23,13,36,0.30,4,Fog-Rain,208
2013-11-19,48,41,33,30,22,17,54,47,37,30.26,29.96,29.68,10,10,10,21,14,33,0.00,1,,312
2013-11-20,41,34,28,16,14,10,56,47,29,30.61,30.49,30.30,10,10,10,17,12,25,0.00,0,,357
2013-11-21,46,36,27,36,24,15,79,60,32,30.63,30.55,30.40,10,10,10,8,4,,0.00,1,,341
2013-11-22,52,48,44,52,46,37,100,88,74,30.36,30.09,29.83,10,8,2,10,3,17,0.02,8,Rain,227
2013-11-23,50,42,30,47,27,14,90,57,30,29.89,29.84,29.81,10,10,6,23,11,31,0.00,2,,304
2013-11-24,30,26,21,14,3,-4,54,41,28,30.23,29.99,29.83,10,10,10,31,20,48,0.00,0,,303
2013-11-25,37,28,19,27,5,-10,67,41,17,30.39,30.34,30.23,10,10,6,18,13,32,0.00,0,,291
2013-11-26,46,41,37,45,30,18,97,67,45,30.34,30.24,30.00,10,9,5,13,6,22,0.07,6,Rain,130
2013-11-27,61,49,37,61,52,31,100,94,76,29.94,29.42,29.21,10,4,0,36,16,50,2.09,8,Fog-Rain,193
2013-11-28,37,32,27,29,15,7,73,51,37,30.46,30.09,29.56,10,10,10,18,14,29,0.00,2,,290
2013-11-29,35,30,24,15,11,3,53,47,37,30.73,30.57,30.46,10,10,10,10,8,,0.00,3,,332
2013-11-30,39,28,19,29,16,5,79,61,46,30.77,30.66,30.44,10,10,10,9,7,,0.00,2,,31